Regional Weather Roundup
Issued by NWS

Current Version | Previous Version | Text Only | Print | Product List | Glossary On
Versions: 1 2 3 4 5 6 7 8 9 10 11 12 13 14 15 16 17 18 19 20 21 22 23 24 25 26 27 28 29 30 31 32 33 34 35 36 37 38 39 40 41 42 43 44 45 46 47 48 49 50
000
ASUS43 KOAX 161910
RWRNE

WEATHER ROUNDUP FOR NEBRASKA
NATIONAL WEATHER SERVICE OMAHA NE
100 PM CST MON JAN 16 2017

NOTES: SATELLITE DATA IS BEING USED TO AUGMENT CLOUD COVER ABOVE
       12000 FEET.
       "FAIR" INDICATES FEW OR NO CLOUDS BELOW 12,000 FEET WITH NO
       SIGNIFICANT WEATHER AND/OR OBSTRUCTIONS TO VISIBILITY.

  * THESE STATIONS DO NOT REPORT WEATHER SUCH AS RAIN...SNOW OR FOG.

NEZ001>004-019>022-054>056-162000-
NEBRASKA PANHANDLE

CITY           SKY/WX    TMP DP  RH WIND       PRES   REMARKS
SCOTTSBLUFF    CLOUDY    38  18  44 MISG      30.08F
ALLIANCE       CLOUDY    37  17  44 N17       30.04F WCI  27
CHADRON        SUNNY     30  16  56 NW15      30.10F WCI  19
KIMBALL        CLOUDY    35  23  61 N16       30.05F WCI  25
SIDNEY         CLOUDY    34  19  54 N22       30.04F WCI  22
$$

NEZ057>060-069>072-079>082-162000-
SOUTHWEST NEBRASKA

CITY           SKY/WX    TMP DP  RH WIND       PRES   REMARKS
NORTH PLATTE   CLOUDY    34  30  85 NW10      29.97S WCI  26
IMPERIAL       LGT SNOW  33  30  88 N22       29.97S FOG     WCI  21
LEXINGTON      DRIZZLE   33  32  94 N10       29.93F WCI  25
MCCOOK         CLOUDY    34  33  96 N8        29.94F FOG     WCI  27
OGALLALA       CLOUDY    36  31  82 N7        30.00F WCI  31
$$

NEZ005>010-023>029-035>040-094-162000-
NORTH CENTRAL NEBRASKA

CITY           SKY/WX    TMP DP  RH WIND       PRES   REMARKS
VALENTINE      CLOUDY    33  13  43 NW15      30.03F WCI  23
AINSWORTH      CLOUDY    33  28  80 N10       30.01S WCI  25
BROKEN BOW     LGT RAIN  33  30  88 N24       29.95F FOG     WCI  20
O`NEILL        MIX PCPN  30  28  92 N9        30.01S WCI  21
ORD            LGT RAIN  32  29  88 N16       29.96F FOG     WCI  21
THEDFORD       CLOUDY    35  32  89 N8        29.99F WCI  28
$$

NEZ041-046>049-061>064-073>077-083>087-162000-
SOUTH CENTRAL NEBRASKA

CITY           SKY/WX    TMP DP  RH WIND       PRES   REMARKS
GRAND ISLAND   FRZ RAIN N/A N/A N/A N7        29.91F FOG
AURORA         MIX PCPN  32  32  99 N5        29.89F WCI  27
HASTINGS       MIX PCPN  32  30  92 N15       29.90F WCI  22
HEBRON         CLOUDY    32  32 100 N3        29.87F FOG
HOLDREGE       DRIZZLE   32  31  97 N5        29.90F WCI  28
KEARNEY *      CLOUDY    32  28  86 N5        29.91F WCI  27
YORK           LGT RAIN  32  32 100 CALM      29.90F
$$

NEZ011>018-030>034-042>045-162000-
NORTHEAST NEBRASKA

CITY           SKY/WX    TMP DP  RH WIND       PRES   REMARKS
NORFOLK        FRZ RAIN  31  29  92 N15       29.94F FOG     WCI  20
ALBION         MIX PCPN  32  31  94 N9        29.94F WCI  25
BLAIR          MIX PCPN  33  32  98 N6        29.89F VSB 1   WCI  27
FREMONT        CLOUDY    32  32 100 CALM      29.92F
TEKAMAH        LGT RAIN  33  31  92 N14       29.94F FOG     WCI  23
WAYNE          MIX PCPN  32  32  99 N10       29.95F WCI  24
$$

NEZ050>053-065>068-078-088>093-162000-
SOUTHEAST NEBRASKA

CITY           SKY/WX    TMP DP  RH WIND       PRES   REMARKS
LINCOLN        CLOUDY    33  32  96 N10       29.91F FOG     WCI  25
OMAHA EPPLEY   LGT RAIN  34  30  85 N8        29.91F FOG     WCI  27
BEATRICE       CLOUDY    33  33 100 NE5       29.86F FOG     WCI  28
FALLS CITY     FOG       35  35 100 NE6       29.85F VSB 3/4 WCI  30
NEBRASKA CITY  FOG       32  32 100 NE5       29.87F VSB 1/4 WCI  28
PLATTSMOUTH    CLOUDY    33  31  92 CALM      29.89F FOG
$$

NEZ044-045-051>053-067-162000-
OMAHA AREA

CITY           SKY/WX    TMP DP  RH WIND       PRES   REMARKS
OMAHA EPPLEY   LGT RAIN  34  30  85 N8        29.91F FOG     WCI  27
BLAIR          MIX PCPN  33  32  98 N6        29.89F VSB 1   WCI  27
FREMONT        CLOUDY    32  32 100 CALM      29.92F
MILLARD        LGT RAIN  35  34  94 CALM      29.91F
OFFUTT AFB     LGT RAIN  34  34 100 N7        29.89F FOG     WCI  28
PLATTSMOUTH    CLOUDY    33  31  92 CALM      29.89F FOG
WAHOO          MIX PCPN  32  32  99 N9        29.91F WCI  24
$$




USA.gov is the U.S. government's official web portal to all federal, state and local government web resources and services.